Content
SEND FEEDBACK

Daily
Averages
Monthly
Summary
United States of America

ST. LOUIS, MISSOURI


Home > North America > United States > Missouri
Elevation: 535 feet     Latitude: 38 45N     Longitude: 090 22W

WEATHER
 
SELECT A DAY
Number of Records: 199,751;   Date Range: 1/1/95 - 10/24/14
 
SHARE

PRINT THIS DATA

[ ← Previous Day ]
WEATHER ALMANAC - MARCH 31, 2013
[ Next Day → ]
[ °C ]   °F
Weather ElementAverageHighLow
Temperature53.6 °F68 °F (2:54 pm)46.4 °F (12:16 am)
Dewpoint42.5 °F48.9 °F (9:54 am)33.1 °F (3:54 pm)
Humidity71.8 %100 % (12:16 am)27 % (4:54 pm)
Barometer29.89 in29.95 in (11:54 pm)29.84 in (4:54 pm)
Wind Speed5.3 mph13.8 mph (3:54 pm)
Wind Gust24.2 mph (3:54 pm)
Weather ElementAverage
Visibility6.3 mi
Wind DirectionS (182.9 °)

Weather ElementTotal
Precipitation0.01 in
Heating Degree Days7.8 (Base 65)
Growing Degree Days7.2 (Base 50)
Averaged from 34 records on March 31, 2013
WEATHER CONDITIONS BREAKOUT
WIND DIRECTION BREAKOUT
WEATHER BY HOUR - MARCH 31, 2013
[ °C ]   °F
Local TimeTemperatureDewpointHumidityBarometerVisibilityWind DirectionWind SpeedGust SpeedPrecipitationEventsConditions
12:16 AM46.4 °F46.4 °F100 %29.91 in2.0 miCalmOvercast
12:26 AM46.4 °F44.6 °F93 %29.91 in1.5 miCalmOvercast
12:41 AM46.4 °F44.6 °F93 %29.91 in1.5 miCalmOvercast
12:51 AM46.4 °F44.6 °F93 %29.91 in1.0 miCalmOvercast
12:54 AM46.9 °F45.0 °F93 %29.91 in1.0 miCalmOvercast
1:43 AM48.2 °F46.4 °F93 %29.90 in3.0 miCalmOvercast
1:54 AM48.0 °F46.0 °F93 %29.90 in2.5 miCalmOvercast
2:09 AM48.2 °F46.4 °F93 %29.89 in4.0 miSW (220°)3.5 mphOvercast
2:49 AM48.2 °F46.4 °F93 %29.89 in5.0 miWSW (250°)4.6 mphOvercast
2:54 AM48.0 °F46.0 °F93 %29.90 in5.0 miWSW (240°)5.8 mphOvercast
3:31 AM48.2 °F46.4 °F93 %29.88 in6.0 miWSW (250°)5.8 mphOvercast
3:54 AM48.9 °F46.9 °F93 %29.88 in6.0 miWSW (240°)5.8 mphOvercast
4:39 AM48.2 °F46.4 °F93 %29.89 in5.0 miWNW (290°)5.8 mphOvercast
4:54 AM48.9 °F46.0 °F90 %29.89 in4.0 miWNW (290°)5.8 mphOvercast
5:41 AM48.2 °F44.6 °F87 %29.88 in5.0 miCalmMostly Cloudy
5:54 AM46.9 °F45.0 °F93 %29.90 in5.0 miWest (270°)3.5 mphMostly Cloudy
6:54 AM48.0 °F46.0 °F93 %29.91 in5.0 miWest (260°)3.5 mphOvercast
7:54 AM48.0 °F45.0 °F89 %29.92 in3.0 miWNW (290°)4.6 mphOvercast
8:54 AM50.0 °F46.9 °F89 %29.92 in3.0 miCalmScattered Clouds
9:54 AM54.0 °F48.9 °F83 %29.91 in6.0 miVariable3.5 mphHaze
10:54 AM60.1 °F48.0 °F64 %29.89 in10.0 miNNE (20°)3.5 mphScattered Clouds
11:54 AM64.0 °F45.0 °F50 %29.87 in10.0 miNW (320°)10.4 mphScattered Clouds
12:54 PM64.9 °F43.0 °F45 %29.88 in10.0 miNNW (330°)6.9 mph0.01 inScattered Clouds
1:54 PM66.9 °F37.0 °F33 %29.87 in10.0 miWNW (290°)12.7 mphClear
2:54 PM68.0 °F34.0 °F28 %29.86 in10.0 miNW (320°)12.7 mph21.9 mphScattered Clouds
3:54 PM66.9 °F33.1 °F28 %29.85 in10.0 miNW (310°)13.8 mph24.2 mphMostly Cloudy
4:54 PM68.0 °F33.1 °F27 %29.84 in10.0 miWest (280°)12.7 mphScattered Clouds
5:54 PM64.9 °F35.1 °F33 %29.86 in10.0 miWNW (290°)13.8 mph21.9 mphMostly Cloudy
6:54 PM62.1 °F36.0 °F38 %29.86 in10.0 miWNW (300°)11.5 mphMostly Cloudy
7:54 PM61.0 °F39.9 °F46 %29.88 in10.0 miNW (310°)9.2 mphOvercast
8:54 PM59.0 °F37.9 °F46 %29.91 in10.0 miNW (310°)9.2 mphOvercast
9:54 PM55.0 °F37.0 °F51 %29.93 in10.0 miWest (280°)5.8 mphPartly Cloudy
10:54 PM48.9 °F35.1 °F59 %29.94 in10.0 miWest (260°)4.6 mphClear
11:54 PM48.9 °F33.1 °F54 %29.95 in10.0 miCalmClear
Hourly data recorded from KSUS, located miles away from St. Louis, Missouri







STORIES FROM OUR PARTNERS